[[{"header":{"parameterUnit":"m.s-1","parameterCategory":1,"la1":30.2991,"la2":30.254,"lo1":-89.0895,"lo2":-89.0444,"dy":0.0017,"dx":0.0017,"nx":28,"ny":28,"refTime":"2025-04-06T09:00:00:Z","depth":0,"parameterNumber":2,"parameterNumberName":"U-component_of_WINDS"},"data":[0,0,0,0,0,0,0,0,0,0,0,0,0,0,0,0,0,0,0,0,0,0,0,0,0,0,0,0,0,0,0,0,0,0,0,0,0,0,0,0,0,0,0,0,0,0,0,0,0,0,0,0,0,0,0,0,0,0,1.5965,1.5965,0,1.597,1.597,1.597,1.5927,1.5926,1.5924,1.5923,1.593,1.5932,1.5933,0,0,0,0,0,0,0,0,0,0,0,0,0,1.5921,1.5922,1.5965,1.5965,1.5965,1.597,1.597,1.597,1.5927,1.5926,1.5924,1.5923,1.593,1.5932,1.5933,0,0,0,0,0,0,0,0,0,0,0,0,0,1.5935,1.5923,1.5965,1.5944,1.5942,1.597,1.597,1.597,1.5927,1.5926,1.5924,1.5922,1.593,1.5931,1.5933,1.5982,0,0,1.5939,1.594,0,0,0,0,0,0,0,0,1.5934,1.5936,1.5947,1.5946,1.5944,1.5946,1.5957,1.5974,1.5928,1.5933,1.5923,1.5921,1.5937,1.5938,1.5943,1.5982,1.5982,1.594,1.5941,1.5942,1.5942,0,0,0,0,0,0,0,1.5933,1.5936,1.5967,1.5948,1.5945,1.5936,1.5935,1.596,1.5945,1.5933,1.5929,1.593,1.5936,1.5942,1.5943,1.5982,1.5939,1.5941,1.5942,1.5943,1.6061,1.6063,0,0,0,0,0,0,1.5935,1.5936,1.5967,1.5967,1.5934,1.5938,1.5938,1.5947,1.5945,1.5943,1.5932,1.5928,1.5939,1.5941,1.5943,1.5999,1.5942,1.5943,1.5945,1.6059,1.6061,1.6063,0,0,0,0,0,0,1.5934,1.5938,1.5967,1.5951,1.5953,1.594,1.5951,1.5948,1.5954,1.5944,1.5942,1.594,1.5938,1.5941,1.5972,1.5999,1.5944,1.5946,1.6057,1.606,1.6062,1.6112,0,0,0,0,0,0,1.5933,1.5938,1.5955,1.5951,1.5954,1.5995,1.5953,1.595,1.5957,1.5952,1.5952,1.595,1.5937,1.597,1.5974,1.6001,1.5948,1.6054,1.6058,1.6061,1.6108,1.6116,1.6123,0,0,0,0,0,1.5932,1.597,1.5957,1.5961,1.5976,1.5996,1.5998,1.5982,1.5959,1.5977,1.5971,1.595,1.5996,1.5973,1.5978,1.6006,1.6052,1.6057,1.6061,1.6104,1.6115,1.6123,0,0,0,0,0,0,1.5978,1.5969,1.5954,1.5992,1.5995,1.5989,1.6011,1.5993,1.6004,1.5999,1.5979,1.5979,1.6014,1.6013,1.5988,1.6052,1.602,1.6026,1.6051,1.6061,1.6068,1.6068,1.5949,0,0,0,0,0,1.5992,1.6009,1.6001,1.6035,1.6037,1.6024,1.6032,1.6019,1.6022,1.6024,1.602,1.6025,1.604,1.6051,1.6064,1.6108,1.6107,1.6129,1.6137,1.6143,1.6148,1.6171,1.6181,1.6078,1.6078,1.6078,0,0,1.6023,1.602,1.6032,1.6044,1.6045,1.6064,1.6026,1.6047,1.606,1.6027,1.6056,1.6054,1.6058,1.6096,1.6113,1.6096,1.6177,1.6149,1.6154,1.6156,1.6177,1.6187,1.6195,1.6081,1.608,1.608,0,0,1.6087,1.6087,1.6115,1.6117,1.6119,1.611,1.6117,1.6114,1.6111,1.614,1.6116,1.6132,1.6159,1.6163,1.6168,1.6235,1.6216,1.624,1.628,1.6303,1.6311,1.6318,1.6342,1.6351,1.6245,1.6245,1.6245,0,1.6125,1.6151,1.6132,1.6155,1.6161,1.6132,1.6161,1.6164,1.6171,1.6176,1.6158,1.6191,1.6191,1.6229,1.6246,1.6251,1.6259,1.624,1.6311,1.6318,1.6325,1.6347,1.6356,1.6248,1.6248,1.6248,1.6247,0,1.6197,1.6215,1.6238,1.6245,1.6254,1.628,1.6266,1.6277,1.6264,1.6257,1.6288,1.6288,1.63,1.6309,1.6296,1.6346,1.6335,1.6315,1.6282,1.6338,1.6358,1.6367,1.6252,1.6251,1.6251,1.625,0,0,1.6289,1.6286,1.6294,1.6297,1.6298,1.6312,1.6337,1.6349,1.636,1.6366,1.6386,1.641,1.6391,1.6397,1.6385,1.6405,1.6458,1.6382,1.6382,1.6395,1.6512,1.6527,1.6537,1.6445,1.6447,1.6448,1.6512,0,1.6352,1.6393,1.6378,1.642,1.6438,1.6411,1.6432,1.6436,1.6431,1.6445,1.644,1.6456,1.643,1.6434,1.6452,1.6447,1.6481,1.6443,1.6465,1.6466,1.6463,1.6548,1.6564,1.6624,1.652,1.6521,1.6522,0,1.6429,1.6438,1.6483,1.648,1.6487,1.6507,1.6517,1.6531,1.6535,1.653,1.6537,1.652,1.6546,1.6514,1.6548,1.6522,1.6531,1.653,1.6532,1.6532,1.6497,1.6551,1.6643,1.6651,1.6535,1.6534,1.6533,0,1.6492,1.6515,1.6544,1.6548,1.6546,1.6561,1.6561,1.6563,1.6571,1.6581,1.6586,1.6598,1.6605,1.6616,1.6603,1.6581,1.664,1.6606,1.6636,1.6637,1.6649,1.6648,1.6743,1.6656,1.6656,1.6655,1.6655,0,1.6563,1.6591,1.6572,1.6591,1.6622,1.6604,1.6636,1.6633,1.6635,1.6653,1.6631,1.6648,1.6631,1.6647,1.6637,1.6667,1.6671,1.6668,1.6665,1.6669,1.6669,1.6673,1.6669,1.6658,1.6657,1.6657,1.6656,0,1.6637,1.6626,1.6656,1.6652,1.6652,1.6675,1.6672,1.6689,1.6683,1.6706,1.671,1.67,1.6718,1.6707,1.6725,1.6719,1.6758,1.6749,1.6756,1.6754,1.6784,1.6781,1.6884,1.6896,1.6802,1.6803,1.6804,0,1.6682,1.6703,1.6702,1.6712,1.6713,1.673,1.6738,1.6723,1.6732,1.6738,1.6755,1.677,1.6782,1.6812,1.6806,1.682,1.6812,1.6847,1.6814,1.6817,1.6812,1.681,1.6812,1.6853,1.6854,1.6855,1.6856,0,1.6764,1.6757,1.677,1.6781,1.6792,1.68,1.6807,1.6816,1.6801,1.6813,1.683,1.6839,1.6858,1.6874,1.6885,1.6886,1.6869,1.6867,1.6874,1.6878,1.6881,1.688,1.6774,1.6864,1.6863,1.6863,1.6862,1.6862,1.6824,1.6842,1.6843,1.6859,1.6862,1.6869,1.6884,1.688,1.6894,1.6907,1.6898,1.6919,1.6922,1.6936,1.6939,1.6956,1.6942,1.6953,1.6955,1.6958,1.6962,1.688,1.6958,1.6958,1.6958,1.6957,1.6957,0,1.6904,1.6904,1.6918,1.6928,1.694,1.6922,1.6929,1.694,1.6959,1.6964,1.6975,1.6996,1.7011,1.7008,1.7022,1.7036,1.7028,1.704,1.7038,1.7039,1.6974,1.6966,1.7046,1.7046,1.7046,1.7046,1.7046,1.7046,1.6947,1.6975,1.6969,1.7,1.7,1.7019,1.7025,1.7031,1.7035,1.7058,1.7071,1.7068,1.707,1.7084,1.7098,1.7096,1.7102,1.7117,1.7113,1.7052,1.7043,1.7035,1.7027,1.7119,1.7119,1.7176,1.7177,1.7177]},{"header":{"parameterUnit":"m.s-1","parameterCategory":1,"la1":30.2991,"la2":30.254,"lo1":-89.0895,"lo2":-89.0444,"dy":0.0017,"dx":0.0017,"nx":28,"ny":28,"refTime":"2025-04-06T09:00:00:Z","depth":0,"parameterNumber":3,"parameterNumberName":"V-component_of_WINDS"},"data":[0,0,0,0,0,0,0,0,0,0,0,0,0,0,0,0,0,0,0,0,0,0,0,0,0,0,0,0,0,0,0,0,0,0,0,0,0,0,0,0,0,0,0,0,0,0,0,0,0,0,0,0,0,0,0,0,0,0,8.0797,8.08,0,8.1098,8.1102,8.1105,8.1138,8.1135,8.1132,8.1129,8.1433,8.1444,8.1454,0,0,0,0,0,0,0,0,0,0,0,0,0,8.0244,8.0254,8.0796,8.08,8.0804,8.1098,8.1102,8.1106,8.1139,8.1135,8.1131,8.1128,8.1429,8.1442,8.1455,0,0,0,0,0,0,0,0,0,0,0,0,0,8.0509,8.0258,8.0796,8.0856,8.0864,8.1097,8.1102,8.1107,8.114,8.1135,8.113,8.1126,8.1425,8.1441,8.1457,8.1649,0,0,8.1507,8.1514,0,0,0,0,0,0,0,0,8.0494,8.0529,8.0843,8.0852,8.0862,8.1076,8.1019,8.1289,8.1141,8.1035,8.1129,8.1124,8.1318,8.1342,8.1409,8.1663,8.1676,8.1509,8.1518,8.1526,8.153,0,0,0,0,0,0,0,8.0475,8.0516,8.0916,8.0848,8.0859,8.0866,8.0899,8.107,8.1198,8.1044,8.1047,8.1082,8.1322,8.1393,8.1416,8.1681,8.1508,8.1523,8.1533,8.1539,8.2108,8.2113,0,0,0,0,0,0,8.0447,8.0501,8.0906,8.0925,8.0663,8.088,8.0916,8.1012,8.1196,8.122,8.1086,8.1083,8.1367,8.1397,8.1427,8.1665,8.1525,8.1541,8.155,8.2103,8.2109,8.2115,0,0,0,0,0,0,8.0435,8.0482,8.0894,8.0714,8.0767,8.0894,8.1001,8.102,8.1092,8.1228,8.1251,8.1136,8.1365,8.1404,8.1594,8.1676,8.1548,8.1563,8.2097,8.2105,8.2112,8.2141,0,0,0,0,0,0,8.0419,8.0478,8.0553,8.0715,8.0776,8.1057,8.1006,8.1029,8.112,8.1119,8.1281,8.1303,8.1364,8.157,8.161,8.1696,8.1576,8.209,8.21,8.211,8.2133,8.2148,8.2162,0,0,0,0,0,8.0399,8.0547,8.0557,8.0605,8.0873,8.1062,8.1097,8.1166,8.1127,8.1203,8.1291,8.1298,8.166,8.1589,8.1635,8.1726,8.2085,8.2097,8.2109,8.2126,8.2145,8.2161,0,0,0,0,0,0,8.0389,8.057,8.0582,8.0788,8.091,8.1067,8.1165,8.1184,8.1317,8.131,8.1389,8.1425,8.1612,8.1688,8.1606,8.1922,8.1869,8.189,8.1866,8.1885,8.1899,8.1877,8.1589,0,0,0,0,0,8.0411,8.0551,8.0701,8.0868,8.0929,8.1037,8.1121,8.1164,8.1293,8.1344,8.1445,8.1568,8.171,8.1802,8.1939,8.2144,8.218,8.223,8.2244,8.2255,8.2273,8.2388,8.2412,8.2154,8.2154,8.2154,0,0,8.0458,8.0574,8.0657,8.0869,8.0969,8.1111,8.1079,8.1231,8.1337,8.1366,8.1553,8.1632,8.1774,8.1973,8.2065,8.2042,8.2352,8.2271,8.2278,8.2291,8.2403,8.2427,8.2448,8.2163,8.2161,8.216,0,0,8.0616,8.0718,8.0869,8.097,8.1122,8.1193,8.1228,8.1385,8.1439,8.1628,8.1653,8.1779,8.2021,8.2122,8.2205,8.2403,8.2415,8.2445,8.2521,8.2632,8.2652,8.267,8.2741,8.2766,8.2462,8.2463,8.2463,0,8.0654,8.0871,8.0944,8.1096,8.1188,8.1224,8.1377,8.147,8.1658,8.1721,8.1692,8.1998,8.2096,8.232,8.2368,8.2434,8.2477,8.2427,8.2643,8.2663,8.2681,8.275,8.2776,8.2465,8.2465,8.2465,8.2465,0,8.0911,8.1061,8.1164,8.1348,8.1452,8.1603,8.1698,8.1794,8.1828,8.1902,8.2094,8.2213,8.2376,8.2432,8.2466,8.2661,8.2642,8.2627,8.2575,8.2707,8.2773,8.28,8.2469,8.2468,8.2468,8.2467,0,0,8.1071,8.1294,8.1331,8.1415,8.1585,8.1702,8.1855,8.2017,8.2098,8.2226,8.2356,8.2561,8.255,8.2644,8.2689,8.2786,8.2936,8.2761,8.2765,8.279,8.3159,8.3169,8.3198,8.2945,8.295,8.2954,8.3147,0,8.1248,8.1524,8.1595,8.1829,8.1968,8.2005,8.2138,8.2256,8.2329,8.2457,8.2536,8.2681,8.2654,8.2711,8.2809,8.2897,8.3011,8.2884,8.3066,8.3072,8.303,8.3233,8.3244,8.342,8.3173,8.3178,8.3181,0,8.1493,8.1629,8.1878,8.2032,8.2093,8.2212,8.2366,8.2488,8.2623,8.2669,8.2775,8.2812,8.2971,8.291,8.3131,8.3043,8.3122,8.3176,8.3185,8.3205,8.3134,8.3259,8.3478,8.3504,8.3222,8.3219,8.3216,0,8.1585,8.1831,8.2012,8.2083,8.2266,8.2349,8.2429,8.256,8.2653,8.2787,8.2848,8.2998,8.3081,8.3196,8.3271,8.322,8.3487,8.3432,8.3529,8.3527,8.3584,8.3579,8.3819,8.3633,8.3633,8.3632,8.3632,0,8.1777,8.1928,8.2057,8.2168,8.2338,8.2417,8.2582,8.2663,8.2779,8.2906,8.2945,8.3063,8.3156,8.3286,8.3346,8.352,8.3557,8.3598,8.3613,8.3596,8.359,8.3648,8.3638,8.3639,8.3638,8.3636,8.3635,0,8.1909,8.2001,8.2201,8.236,8.2403,8.2521,8.2656,8.2765,8.2839,8.3,8.3041,8.3158,8.3313,8.3401,8.3595,8.3636,8.383,8.3838,8.3786,8.3792,8.3885,8.3875,8.4171,8.4214,8.3998,8.4,8.4001,0,8.2026,8.2143,8.2315,8.2404,8.2486,8.2628,8.2724,8.2806,8.2904,8.3067,8.3157,8.3315,8.3446,8.3693,8.3794,8.3943,8.3955,8.4049,8.3978,8.3957,8.3958,8.395,8.3963,8.4061,8.4063,8.4064,8.4065,0,8.2223,8.2263,8.2401,8.2556,8.267,8.2795,8.2919,8.2989,8.3091,8.3199,8.336,8.3462,8.3662,8.3819,8.3977,8.4057,8.4079,8.4087,8.4118,8.4102,8.4067,8.4088,8.382,8.408,8.4078,8.4077,8.4077,8.4076,8.2352,8.2458,8.2597,8.2749,8.2851,8.2967,8.3077,8.3167,8.3303,8.3474,8.3513,8.3683,8.3815,8.403,8.4115,8.4248,8.423,8.4274,8.4286,8.4296,8.4299,8.4045,8.4277,8.4276,8.4276,8.4276,8.4276,0,8.2552,8.2643,8.2783,8.2956,8.3076,8.3088,8.3225,8.3325,8.3474,8.3596,8.3725,8.391,8.4063,8.4177,8.4332,8.4417,8.4431,8.4455,8.445,8.4469,8.4305,8.4264,8.4442,8.4442,8.4441,8.4441,8.4441,8.4441,8.267,8.2852,8.2908,8.3141,8.323,8.3399,8.3476,8.3583,8.3681,8.3887,8.4015,8.4088,8.4208,8.4373,8.4513,8.4542,8.4598,8.4621,8.4652,8.4497,8.448,8.4463,8.4424,8.4633,8.4633,8.4804,8.4806,8.4807]}]]